Hourly Weather Roundup
Issued by NWS Central Illinois

Home | Current Version | Previous Version | Text Only | Print | Product List | Glossary On
Versions: 1 2 3 4 5 6 7 8 9 10 11 12 13 14 15 16 17 18 19 20 21 22 23 24 25 26 27 28 29 30 31 32 33 34 35 36 37 38 39 40 41 42 43 44 45 46 47 48 49 50
000
NZUS43 KILX 031410
HWRILX

AREA WEATHER ROUNDUP
NATIONAL WEATHER SERVICE, LINCOLN IL
900 AM CDT THU SEP 03 2015


CITY           SKY/WX    TMP DP  RH WIND       PRES   REMARKS
BLOOMINGTON    SUNNY     78  71  79 SW12      30.02F HX  80
CHAMPAIGN      SUNNY     79  70  74 SW7       30.02F HX  82
DANVILLE       SUNNY     77  71  80 SW6       29.99F HAZE
DECATUR        SUNNY     80  70  71 SW7       30.02F HX  83
EFFINGHAM      SUNNY     80  68  67 S5        30.04F HX  82
FLORA          SUNNY     79  70  74 CALM      30.04S HX  81
GALESBURG      SUNNY     76  70  80 SW10      29.99S
JACKSONVILLE   PTSUNNY   78  72  84 S5        30.01S
LACON          SUNNY     77  69  78 SW7       29.97S
LAWRENCEVILLE  SUNNY     79  70  74 SW3       30.04F HX  82
LITCHFIELD     SUNNY     77  70  78 S5        30.03S
$$


CITY           SKY/WX    TMP DP  RH WIND       PRES   REMARKS
LINCOLN        MOSUNNY   79  70  74 SW3       30.00F HX  82
MACOMB         SUNNY     79  69  70 SW5       30.02S HX  81
MATTOON        SUNNY     79  68  69 SW6       30.03S HX  81
MT CARMEL AP   SUNNY     77  70  78 CALM      30.04S
OLNEY-NOBLE AP SUNNY     77  70  78 CALM      30.04F
PARIS          SUNNY     79  71  75 SW8       30.04F HX  82
PEORIA         SUNNY     79  69  71 SW9       29.99F HX  81
PONTIAC        MOSUNNY   80  72  76 SW8       29.99S HX  83
RANTOUL        SUNNY     79  73  79 SW8       30.01S HX  83
ROBINSON       SUNNY     78  71  79 CALM      30.04F HX  80
SPRINGFIELD    MOSUNNY   81  71  71 SW5       30.01S HX  85
TAYLORVILLE    SUNNY     77  70  78 SW3       30.02S
$$

...REGIONAL REPORTS...


CITY           SKY/WX    TMP DP  RH WIND       PRES   REMARKS
CHICAGO O`HARE MOSUNNY   78  69  73 SW10      29.95F HX  80
KANKAKEE       SUNNY     78  71  78 SW8       29.99S HX  81
MOLINE         MOSUNNY   79  69  71 S7        29.95F HX  81
MOUNT STERLING SUNNY     75  70  83 S5        30.00S
MOUNT VERNON   SUNNY     77  68  73 S5        30.05S
PITTSFIELD     MOSUNNY   78  71  77 SW5       30.02S HX  81
QUINCY         SUNNY     78  69  73 S9        30.00S HX  80
ROCKFORD       MOSUNNY   78  70  76 SW7       29.96F HX  80
$$


CITY           SKY/WX    TMP DP  RH WIND       PRES   REMARKS
BURLINGTON     SUNNY     77  70  79 S7        29.98S
CEDAR RAPIDS   SUNNY     77  73  87 S7        29.94S
DES MOINES     PTSUNNY   77  69  76 S9        29.92R
KIRKSVILLE     MOSUNNY   78  69  73 SW6       30.00R HX  80
OTTUMWA        SUNNY     77  72  84 S8        29.94R
ST LOUIS       MOSUNNY   83  69  62 SW3       30.03S HX  86
$$


CITY           SKY/WX    TMP DP  RH WIND       PRES   REMARKS
TERRE HAUTE    SUNNY     78  69  73 SW5       30.04S HX  80
EVANSVILLE     SUNNY     80  70  71 CALM      30.05S HAZE    HX  83
INDIANAPOLIS   SUNNY     79  68  69 SW7       30.04S HX  81
LAFAYETTE      SUNNY     78  69  73 SW7       30.00F HX  80
MADISON        MOSUNNY   76  69  79 NW5       29.94R
MILWAUKEE      MOSUNNY   76  68  76 W7        29.92S
$$





USA.gov is the U.S. government's official web portal to all federal, state and local government web resources and services.